Time,TemperatureF,DewpointF,PressureIn,WindDirection,WindDirectionDegrees,WindSpeedMPH,WindSpeedGustMPH,Humidity,HourlyPrecipIn,Conditions,Clouds,dailyrainin,SoftwareType,DateUTC
2013-12-13 00:22:00,24.0,-99.9,-100.00,North,-999,-999.0,-999.0,-999,0.00,,,0.00,,2013-12-13 06:22:00,
2013-12-13 00:32:00,24.0,-99.9,-100.00,North,-999,-999.0,-999.0,-999,0.00,,,0.00,,2013-12-13 06:32:00,
2013-12-13 00:43:00,24.0,-99.9,-100.00,North,-999,-999.0,-999.0,-999,0.00,,,0.00,,2013-12-13 06:43:00,
2013-12-13 01:22:00,24.0,-99.9,-100.00,North,-999,-999.0,-999.0,-999,0.00,,,0.00,,2013-12-13 07:22:00,
2013-12-13 01:32:00,24.0,-99.9,-100.00,North,-999,-999.0,-999.0,-999,0.00,,,0.00,,2013-12-13 07:32:00,
2013-12-13 01:42:00,24.0,-99.9,-100.00,North,-999,-999.0,-999.0,-999,0.00,,,0.00,,2013-12-13 07:42:00,
2013-12-13 02:22:00,23.0,-99.9,-100.00,North,-999,-999.0,-999.0,-999,0.00,,,0.00,,2013-12-13 08:22:00,
2013-12-13 02:32:00,23.0,-99.9,-100.00,North,-999,-999.0,-999.0,-999,0.00,,,0.00,,2013-12-13 08:32:00,
2013-12-13 02:42:00,23.0,-99.9,-100.00,North,-999,-999.0,-999.0,-999,0.00,,,0.00,,2013-12-13 08:42:00,
2013-12-13 03:22:00,23.0,-99.9,-100.00,North,-999,-999.0,-999.0,-999,0.00,,,0.00,,2013-12-13 09:22:00,
2013-12-13 03:33:00,23.0,-99.9,-100.00,North,-999,-999.0,-999.0,-999,0.00,,,0.00,,2013-12-13 09:33:00,
2013-12-13 03:43:00,23.0,-99.9,-100.00,North,-999,-999.0,-999.0,-999,0.00,,,0.00,,2013-12-13 09:43:00,
2013-12-13 04:23:00,24.0,-99.9,-100.00,North,-999,-999.0,-999.0,-999,0.00,,,0.00,,2013-12-13 10:23:00,
2013-12-13 04:34:00,24.0,-99.9,-100.00,North,-999,-999.0,-999.0,-999,0.00,,,0.00,,2013-12-13 10:34:00,
2013-12-13 04:43:00,24.0,-99.9,-100.00,North,-999,-999.0,-999.0,-999,0.00,,,0.00,,2013-12-13 10:43:00,
2013-12-13 05:22:00,25.0,-99.9,-100.00,North,-999,-999.0,-999.0,-999,0.00,,,0.00,,2013-12-13 11:22:00,
2013-12-13 05:33:00,25.0,-99.9,-100.00,North,-999,-999.0,-999.0,-999,0.00,,,0.00,,2013-12-13 11:33:00,
2013-12-13 05:43:00,25.0,-99.9,-100.00,North,-999,-999.0,-999.0,-999,0.00,,,0.00,,2013-12-13 11:43:00,
2013-12-13 06:24:00,26.0,-99.9,-100.00,North,-999,-999.0,-999.0,-999,0.00,,,-99.99,,2013-12-13 12:24:00,
2013-12-13 06:32:00,26.0,-99.9,-100.00,North,-999,-999.0,-999.0,-999,0.00,,,-99.99,,2013-12-13 12:32:00,
2013-12-13 06:42:00,26.0,-99.9,-100.00,North,-999,-999.0,-999.0,-999,0.00,,,-99.99,,2013-12-13 12:42:00,
2013-12-13 07:22:00,28.0,-99.9,-100.00,North,-999,-999.0,-999.0,-999,0.00,,,0.00,,2013-12-13 13:22:00,
2013-12-13 07:32:00,28.0,-99.9,-100.00,North,-999,-999.0,-999.0,-999,0.00,,,0.00,,2013-12-13 13:32:00,
2013-12-13 07:42:00,28.0,-99.9,-100.00,North,-999,-999.0,-999.0,-999,0.00,,,0.00,,2013-12-13 13:42:00,
2013-12-13 08:22:00,29.0,-99.9,-100.00,North,-999,-999.0,-999.0,-999,0.00,,,0.00,,2013-12-13 14:22:00,
2013-12-13 08:32:00,29.0,-99.9,-100.00,North,-999,-999.0,-999.0,-999,0.00,,,0.00,,2013-12-13 14:32:00,
2013-12-13 08:43:00,29.0,-99.9,-100.00,North,-999,-999.0,-999.0,-999,0.00,,,0.00,,2013-12-13 14:43:00,
2013-12-13 09:22:00,32.0,-99.9,-100.00,North,-999,-999.0,-999.0,-999,0.00,,,0.00,,2013-12-13 15:22:00,
2013-12-13 09:33:00,32.0,-99.9,-100.00,North,-999,-999.0,-999.0,-999,0.00,,,0.00,,2013-12-13 15:33:00,
2013-12-13 09:44:00,32.0,-99.9,-100.00,North,-999,-999.0,-999.0,-999,0.00,,,0.00,,2013-12-13 15:44:00,
2013-12-13 10:23:00,33.0,-99.9,-100.00,North,-999,-999.0,-999.0,-999,0.00,,,-99.99,,2013-12-13 16:23:00,
2013-12-13 10:33:00,33.0,-99.9,-100.00,North,-999,-999.0,-999.0,-999,0.00,,,-99.99,,2013-12-13 16:33:00,
2013-12-13 10:43:00,33.0,-99.9,-100.00,North,-999,-999.0,-999.0,-999,0.00,,,-99.99,,2013-12-13 16:43:00,
2013-12-13 11:23:00,35.0,-99.9,-100.00,North,-999,-999.0,-999.0,-999,0.00,,,0.00,,2013-12-13 17:23:00,
2013-12-13 11:33:00,35.0,-99.9,-100.00,North,-999,-999.0,-999.0,-999,0.00,,,0.00,,2013-12-13 17:33:00,
2013-12-13 11:43:00,35.0,-99.9,-100.00,North,-999,-999.0,-999.0,-999,0.00,,,0.00,,2013-12-13 17:43:00,
2013-12-13 12:22:00,35.0,-99.9,-100.00,North,-999,-999.0,-999.0,-999,0.00,,,0.00,,2013-12-13 18:22:00,
2013-12-13 12:33:00,35.0,-99.9,-100.00,North,-999,-999.0,-999.0,-999,0.00,,,0.00,,2013-12-13 18:33:00,
2013-12-13 12:42:00,35.0,-99.9,-100.00,North,-999,-999.0,-999.0,-999,0.00,,,0.00,,2013-12-13 18:42:00,
2013-12-13 13:22:00,36.0,-99.9,-100.00,North,-999,-999.0,-999.0,-999,0.00,,,0.00,,2013-12-13 19:22:00,
2013-12-13 13:32:00,36.0,-99.9,-100.00,North,-999,-999.0,-999.0,-999,0.00,,,0.00,,2013-12-13 19:32:00,
2013-12-13 13:42:00,36.0,-99.9,-100.00,North,-999,-999.0,-999.0,-999,0.00,,,0.00,,2013-12-13 19:42:00,
2013-12-13 14:22:00,36.0,-99.9,-100.00,North,-999,-999.0,-999.0,-999,0.00,,,0.00,,2013-12-13 20:22:00,
2013-12-13 14:32:00,36.0,-99.9,-100.00,North,-999,-999.0,-999.0,-999,0.00,,,0.00,,2013-12-13 20:32:00,
2013-12-13 14:42:00,36.0,-99.9,-100.00,North,-999,-999.0,-999.0,-999,0.00,,,0.00,,2013-12-13 20:42:00,
2013-12-13 15:22:00,37.0,-99.9,-100.00,North,-999,-999.0,-999.0,-999,0.05,,,0.05,,2013-12-13 21:22:00,
2013-12-13 15:34:00,37.0,-99.9,-100.00,North,-999,-999.0,-999.0,-999,0.05,,,0.05,,2013-12-13 21:34:00,
2013-12-13 15:43:00,37.0,-99.9,-100.00,North,-999,-999.0,-999.0,-999,0.05,,,0.05,,2013-12-13 21:43:00,
2013-12-13 16:24:00,37.0,-99.9,-100.00,North,-999,-999.0,-999.0,-999,0.02,,,0.07,,2013-12-13 22:24:00,
2013-12-13 16:33:00,37.0,-99.9,-100.00,North,-999,-999.0,-999.0,-999,0.02,,,0.07,,2013-12-13 22:33:00,
2013-12-13 16:42:00,37.0,-99.9,-100.00,North,-999,-999.0,-999.0,-999,0.02,,,0.07,,2013-12-13 22:42:00,
2013-12-13 17:22:00,37.0,-99.9,-100.00,North,-999,-999.0,-999.0,-999,0.00,,,0.07,,2013-12-13 23:22:00,
2013-12-13 17:33:00,37.0,-99.9,-100.00,North,-999,-999.0,-999.0,-999,0.00,,,0.07,,2013-12-13 23:33:00,
2013-12-13 17:43:00,37.0,-99.9,-100.00,North,-999,-999.0,-999.0,-999,0.00,,,0.07,,2013-12-13 23:43:00,
2013-12-13 18:22:00,36.0,-99.9,-100.00,North,-999,-999.0,-999.0,-999,0.06,,,0.13,,2013-12-14 00:22:00,
2013-12-13 18:32:00,36.0,-99.9,-100.00,North,-999,-999.0,-999.0,-999,0.06,,,0.13,,2013-12-14 00:32:00,
2013-12-13 18:42:00,36.0,-99.9,-100.00,North,-999,-999.0,-999.0,-999,0.06,,,0.13,,2013-12-14 00:42:00,
2013-12-13 19:22:00,37.0,-99.9,-100.00,North,-999,-999.0,-999.0,-999,0.04,,,0.17,,2013-12-14 01:22:00,
2013-12-13 19:32:00,37.0,-99.9,-100.00,North,-999,-999.0,-999.0,-999,0.04,,,0.17,,2013-12-14 01:32:00,
2013-12-13 19:42:00,37.0,-99.9,-100.00,North,-999,-999.0,-999.0,-999,0.04,,,0.17,,2013-12-14 01:42:00,
2013-12-13 20:22:00,37.0,-99.9,-100.00,North,-999,-999.0,-999.0,-999,0.00,,,0.17,,2013-12-14 02:22:00,
2013-12-13 20:32:00,37.0,-99.9,-100.00,North,-999,-999.0,-999.0,-999,0.00,,,0.17,,2013-12-14 02:32:00,
2013-12-13 20:42:00,37.0,-99.9,-100.00,North,-999,-999.0,-999.0,-999,0.00,,,0.17,,2013-12-14 02:42:00,
2013-12-13 21:22:00,37.0,-99.9,-100.00,North,-999,-999.0,-999.0,-999,0.08,,,0.25,,2013-12-14 03:22:00,
2013-12-13 21:34:00,37.0,-99.9,-100.00,North,-999,-999.0,-999.0,-999,0.08,,,0.25,,2013-12-14 03:34:00,
2013-12-13 21:44:00,37.0,-99.9,-100.00,North,-999,-999.0,-999.0,-999,0.08,,,0.25,,2013-12-14 03:44:00,
2013-12-13 22:23:00,37.0,-99.9,-100.00,North,-999,-999.0,-999.0,-999,0.09,,,0.34,,2013-12-14 04:23:00,
2013-12-13 22:33:00,37.0,-99.9,-100.00,North,-999,-999.0,-999.0,-999,0.09,,,0.34,,2013-12-14 04:33:00,
2013-12-13 22:43:00,37.0,-99.9,-100.00,North,-999,-999.0,-999.0,-999,0.09,,,0.34,,2013-12-14 04:43:00,
2013-12-13 23:22:00,37.0,-99.9,-100.00,North,-999,-999.0,-999.0,-999,0.06,,,0.40,,2013-12-14 05:22:00,
2013-12-13 23:33:00,37.0,-99.9,-100.00,North,-999,-999.0,-999.0,-999,0.06,,,0.40,,2013-12-14 05:33:00,
2013-12-13 23:43:00,37.0,-99.9,-100.00,North,-999,-999.0,-999.0,-999,0.06,,,0.40,,2013-12-14 05:43:00,